FW0303 Weather Reports


Display with metric or nautical units.
time (UTC)temp
F
wind
direction
speed
MPH
gust
MPH
rain 1hr
in
rain 24hr
in
rain mn
in
humidity
%
barometer
mb
20260503174559 55 227 0.0 0.0 0.00 0.00 0.00 38 1012.2
20260503173114 55 232 0.0 0.0 0.00 0.00 0.00 40 1012.3
20260503171556 54 284 0.0 0.0 0.00 0.00 0.00 42 1012.5
20260503110117 44 250 0.0 2.0 0.00 0.00 0.00 65 1012.5
20260503081545 42 221 0.0 2.0 0.00 0.00 0.00 69 1010.4
20260503071533 44 236 0.0 2.0 0.00 0.00 0.00 70 1010.4
20260503054525 46 236 0.0 2.0 0.00 0.00 0.00 63 1010.7
20260503053021 46 237 0.0 3.0 0.00 0.00 0.00 62 1010.8
20260503051518 46 215 0.0 2.0 0.00 0.00 0.00 64 1010.8
20260503050018 46 215 0.0 0.0 0.00 0.00 0.00 68 1010.9
20260503044514 46 215 0.0 1.0 0.00 0.00 0.00 68 1011.1
20260503043012 46 215 0.0 0.0 0.00 0.00 0.00 71 1011.2
20260503041516 46 215 0.0 0.0 0.00 0.00 0.00 72 1011.2
20260503040008 46 215 0.0 0.0 0.00 0.00 0.00 73 1011.3
20260503034508 46 215 0.0 0.0 0.00 0.00 0.00 73 1011.3
20260503033008 45 215 0.0 0.0 0.00 0.00 0.00 73 1011.2
20260503031507 46 215 0.0 0.0 0.00 0.00 0.00 75 1011.2
20260503030006 46 215 0.0 0.0 0.00 0.00 0.00 72 1011.2
20260503024506 47 215 0.0 0.0 0.00 0.00 0.00 72 1011.4
20260503023005 48 215 0.0 0.0 0.00 0.00 0.00 72 1011.5
20260503021505 48 215 0.0 0.0 0.00 0.00 0.00 70 1011.5
20260503020005 49 215 0.0 0.0 0.00 0.00 0.00 69 1011.3
20260503014503 49 215 0.0 0.0 0.00 0.00 0.00 65 1011.5
20260503013003 50 215 0.0 0.0 0.00 0.00 0.00 65 1011.2
20260503011503 50 215 0.0 0.0 0.00 0.00 0.00 63 1011.5
20260503010003 51 215 0.0 0.0 0.00 0.00 0.00 61 1011.1
20260503004510 51 215 0.0 0.0 0.00 0.00 0.00 61 1010.8
20260503003001 52 215 0.0 0.0 0.00 0.00 0.00 65 1010.7
20260503001502 52 151 0.0 0.0 0.00 0.00 0.00 62 1010.6
20260502234600 54 151 0.0 0.0 0.00 0.00 0.00 55 1010.4
20260502233103 55 151 0.0 0.0 0.00 0.00 0.00 55 1010.4
20260502231559 56 151 0.0 0.0 0.00 0.00 0.00 54 1010.5
20260502230058 56 5 0.0 0.0 0.00 0.00 0.00 46 1010.3
20260502224609 57 5 0.0 0.0 0.00 0.00 0.00 43 1010.3
20260502223058 58 81 0.0 0.0 0.00 0.00 0.00 42 1010.2
20260502221557 59 276 0.0 0.0 0.00 0.00 0.00 39 1010.0
20260502220056 60 308 0.0 0.0 0.00 0.00 0.00 40 1010.2
20260502214555 61 194 0.0 0.0 0.00 0.00 0.00 39 1010.2
20260502213109 61 303 0.0 0.0 0.00 0.00 0.00 41 1010.2
20260502211622 60 236 0.0 0.0 0.00 0.00 0.00 36 1010.0
20260502210055 61 29 0.0 0.0 0.00 0.00 0.00 38 1009.9
20260502204551 60 201 0.0 0.0 0.00 0.00 0.00 38 1009.9
20260502203057 59 309 0.0 0.0 0.00 0.00 0.00 42 1010.0
20260502201555 59 277 0.0 0.0 0.00 0.00 0.00 39 1010.1
20260502200048 60 246 0.0 0.0 0.00 0.00 0.00 37 1010.2
20260502194556 62 209 0.0 0.0 0.00 0.00 0.00 38 1010.5
20260502193043 62 187 0.0 0.0 0.00 0.00 0.00 36 1010.7
20260502191540 61 55 0.0 0.0 0.00 0.00 0.00 34 1010.9
20260502190042 60 267 0.0 0.0 0.00 0.00 0.00 38 1011.1
20260502184550 60 360 0.0 0.0 0.00 0.00 0.00 39 1011.3
20260502183050 60 272 0.0 0.0 0.00 0.00 0.00 42 1011.5
20260502181542 60 309 0.0 0.0 0.00 0.00 0.00 43 1011.5